User: anonymous   Login
Location: Plymouth
(43.7570°N, 71.6890°W)
Time: 05:51:14
(UTC-05:00)
Language:

Cosmos 2016 Rocket - Orbit

View from above orbital plane
View from above orbital plane
View from above satellite
View from above satellite

Ground track
Ground track

The orbit data is extracted from the following two-line orbital elements,

1 19922U 89028B   17015.88650237 -.00000045 +00000-0 -60076-4 0  9997
2 19922 082.9586 179.7633 0035587 313.4745 046.3454 13.77189869396018
Epoch (UTC): 15 January 2017 21:16:33
Eccentricity: 0.0035587
inclination: 82.9586°
perigee height: 948 km
apogee height: 1000 km
right ascension of ascending node: 179.7633°
argument of perigee: 313.4745°
revolutions per day: 13.77189869
mean anomaly at epoch: 46.3454°
orbit number at epoch: 39601

The dashed part of the orbit path shows where the satellite is in the earth's shadow,  

DLR